This demonstration page uses our WeatherBlox Daily Observations layout. Learn more.

Left ArrowRight Arrow

53.62937, 11.41316

Hourly Observations for May 31, 2017

Temp ( °F °C ) Dew Point ( °F °C ) Humidity (%) Winds ( mph kmh ) Pressure ( in mb ) Visibility ( mi km ) Precip ( " mm )
6:20 am 06:20 Mostly Sunny 59 15 55 13 88 88 WSW 10 17 29.97 1015 7 11 N/A
6:50 am 06:50 Partly Cloudy 59 15 55 13 88 88 W 12 19 29.97 1015 30 48 N/A
7:20 am 07:20 Mostly Sunny 61 16 55 13 83 83 WSW 13 20 29.97 1015 30 48 N/A
7:50 am 07:50 Partly Cloudy 61 16 55 13 83 83 WSW 15 24 30.00 1016 30 48 N/A
8:20 am 08:20 Cloudy 61 16 55 13 83 83 WSW 14 22 30.00 1016 30 48 N/A
8:50 am 08:50 Mostly Cloudy 63 17 55 13 77 77 WSW 17 28 30.00 1016 30 48 N/A
9:20 am 09:20 Mostly Cloudy 63 17 55 13 77 77 W 16 26 30.00 1016 30 48 N/A
9:50 am 09:50 Mostly Cloudy 64 18 55 13 73 73 W 15 24 30.03 1017 30 48 N/A
10:20 am 10:20 Mostly Cloudy 64 18 54 12 68 68 W 18 30 30.03 1017 30 48 N/A
10:50 am 10:50 Partly Cloudy 66 19 52 11 60 60 W 20 31 30.03 1017 30 48 N/A
11:20 am 11:20 Mostly Sunny 64 18 50 10 60 60 W 20 31 30.03 1017 30 48 N/A
11:50 am 11:50 Mostly Sunny 66 19 48 9 52 52 W 20 31 30.06 1018 7 11 N/A
12:03 pm 12:03 Mostly Sunny 68 20 50 10 53 53 W 18 30 30.03 1017 7 11 N/A
12:20 pm 12:20 Mostly Sunny 66 19 48 9 52 52 W 23 37 30.03 1017 7 11 N/A
12:23 pm 12:23 Mostly Sunny 66 19 48 9 52 52 W 20 31 30.06 1018 7 11 N/A
12:50 pm 12:50 Mostly Sunny 68 20 50 10 53 53 W 17 28 30.06 1018 7 11 N/A
1:20 pm 13:20 Mostly Sunny 68 20 48 9 49 49 WNW 18 30 30.06 1018 7 11 N/A
1:24 pm 13:24 Mostly Sunny 68 20 50 10 53 53 W 18 30 30.06 1018 7 11 N/A
1:50 pm 13:50 Mostly Sunny 68 20 46 8 46 46 W 20 31 30.06 1018 7 11 N/A
2:18 pm 14:18 Mostly Sunny 68 20 45 7 43 43 WNW 20 31 30.06 1018 7 11 N/A
2:20 pm 14:20 Mostly Sunny 68 20 46 8 46 46 W 18 30 30.06 1018 7 11 N/A
2:50 pm 14:50 Mostly Sunny 68 20 45 7 43 43 W 21 33 30.06 1018 7 11 N/A
3:20 pm 15:20 Mostly Sunny 66 19 45 7 46 46 W 22 35 30.06 1018 7 11 N/A
3:50 pm 15:50 Mostly Sunny 66 19 45 7 46 46 W 21 33 30.06 1018 7 11 N/A
4:20 pm 16:20 Mostly Sunny 66 19 45 7 46 46 W 22 35 30.09 1019 7 11 N/A
4:50 pm 16:50 Mostly Sunny 66 19 46 8 49 49 W 17 28 30.06 1018 7 11 N/A
5:20 pm 17:20 Mostly Sunny 66 19 46 8 49 49 W 17 28 30.09 1019 7 11 N/A
5:50 pm 17:50 Mostly Sunny 63 17 45 7 52 52 W 15 24 30.09 1019 30 48 N/A

Powered by AerisWeather